Year,Month,Day,Hour,Minute,Value (Times are PST for temperature in C)
2017,07,30,00,00,15.40
2017,07,30,00,01,15.40
2017,07,30,00,02,15.40
2017,07,30,00,03,15.40
2017,07,30,00,04,15.50
2017,07,30,00,05,15.50
2017,07,30,00,06,15.50
2017,07,30,00,07,15.50
2017,07,30,00,08,15.50
2017,07,30,00,09,15.50
2017,07,30,00,10,15.50
2017,07,30,00,11,15.50
2017,07,30,00,12,15.50
2017,07,30,00,13,15.50
2017,07,30,00,14,15.50
2017,07,30,00,15,15.50
2017,07,30,00,16,15.50
2017,07,30,00,17,15.50
2017,07,30,00,18,15.40
2017,07,30,00,19,15.40
2017,07,30,00,20,15.40
2017,07,30,00,21,15.40
2017,07,30,00,22,15.40
2017,07,30,00,23,15.30
2017,07,30,00,24,15.30
2017,07,30,00,25,15.30
2017,07,30,00,26,15.30
2017,07,30,00,27,15.30
2017,07,30,00,28,15.30
2017,07,30,00,29,15.20
2017,07,30,00,30,15.20
2017,07,30,00,31,15.20
2017,07,30,00,32,15.20
2017,07,30,00,33,15.20
2017,07,30,00,34,15.20
2017,07,30,00,35,15.20
2017,07,30,00,36,15.20
2017,07,30,00,37,15.20
2017,07,30,00,38,15.20
2017,07,30,00,39,15.10
2017,07,30,00,40,15.10
2017,07,30,00,41,15.10
2017,07,30,00,42,15.10
2017,07,30,00,43,15.10
2017,07,30,00,44,15.10
2017,07,30,00,45,15.10
2017,07,30,00,46,15.20
2017,07,30,00,47,15.20
2017,07,30,00,48,15.20
2017,07,30,00,49,15.20
2017,07,30,00,50,15.20
2017,07,30,00,51,15.20
2017,07,30,00,52,15.20
2017,07,30,00,53,15.20
2017,07,30,00,54,15.20
2017,07,30,00,55,15.20
2017,07,30,00,56,15.20
2017,07,30,00,57,15.20
2017,07,30,00,58,15.20
2017,07,30,00,59,15.20
2017,07,30,01,00,15.20
2017,07,30,01,01,15.20
2017,07,30,01,02,15.20
2017,07,30,01,03,15.20
2017,07,30,01,04,15.30
2017,07,30,01,05,15.30
2017,07,30,01,06,15.30
2017,07,30,01,07,15.30
2017,07,30,01,08,15.30
2017,07,30,01,09,15.30
2017,07,30,01,10,15.30
2017,07,30,01,11,15.40
2017,07,30,01,12,15.40
2017,07,30,01,13,15.40
2017,07,30,01,14,15.40
2017,07,30,01,15,15.40
2017,07,30,01,16,15.50
2017,07,30,01,17,15.50
2017,07,30,01,18,15.50
2017,07,30,01,19,15.50
2017,07,30,01,20,15.60
2017,07,30,01,21,15.60
2017,07,30,01,22,15.60
2017,07,30,01,23,15.60
2017,07,30,01,24,15.70
2017,07,30,01,25,15.70
2017,07,30,01,26,15.70
2017,07,30,01,27,15.70
2017,07,30,01,28,15.70
2017,07,30,01,29,15.70
2017,07,30,01,30,15.70
2017,07,30,01,31,15.70
2017,07,30,01,32,15.70
2017,07,30,01,33,15.80
2017,07,30,01,34,15.80
2017,07,30,01,35,15.80
2017,07,30,01,36,15.80
2017,07,30,01,37,15.70
2017,07,30,01,38,15.70
2017,07,30,01,39,15.70
2017,07,30,01,40,15.70
2017,07,30,01,41,15.80
2017,07,30,01,42,15.70
2017,07,30,01,43,15.70
2017,07,30,01,44,15.80
2017,07,30,01,45,15.70
2017,07,30,01,46,15.70
2017,07,30,01,47,15.70
2017,07,30,01,48,15.70
2017,07,30,01,49,15.70
2017,07,30,01,50,15.70
2017,07,30,01,51,15.70
2017,07,30,01,52,15.70
2017,07,30,01,53,15.70
2017,07,30,01,54,15.70
2017,07,30,01,55,15.70
2017,07,30,01,56,15.70
2017,07,30,01,57,15.70
2017,07,30,01,58,15.70
2017,07,30,01,59,15.70
2017,07,30,02,00,15.70
2017,07,30,02,01,15.70
2017,07,30,02,02,15.70
2017,07,30,02,03,15.70
2017,07,30,02,04,15.70
2017,07,30,02,05,15.70
2017,07,30,02,06,15.60
2017,07,30,02,07,15.60
2017,07,30,02,08,15.60
2017,07,30,02,09,15.60
2017,07,30,02,10,15.60
2017,07,30,02,11,15.60
2017,07,30,02,12,15.60
2017,07,30,02,13,15.60
2017,07,30,02,14,15.60
2017,07,30,02,15,15.60
2017,07,30,02,16,15.60
2017,07,30,02,17,15.60
2017,07,30,02,18,15.60
2017,07,30,02,19,15.60
2017,07,30,02,20,15.60
2017,07,30,02,21,15.60
2017,07,30,02,22,15.60
2017,07,30,02,23,15.60
2017,07,30,02,24,15.60
2017,07,30,02,25,15.60
2017,07,30,02,26,15.60
2017,07,30,02,27,15.60
2017,07,30,02,28,15.60
2017,07,30,02,29,15.60
2017,07,30,02,30,15.60
2017,07,30,02,31,15.60
2017,07,30,02,32,15.60
2017,07,30,02,33,15.60
2017,07,30,02,34,15.60
2017,07,30,02,35,15.60
2017,07,30,02,36,15.60
2017,07,30,02,37,15.60
2017,07,30,02,38,15.60
2017,07,30,02,39,15.70
2017,07,30,02,40,15.70
2017,07,30,02,41,15.70
2017,07,30,02,42,15.70
2017,07,30,02,43,15.70
2017,07,30,02,44,15.70
2017,07,30,02,45,15.70
2017,07,30,02,46,15.70
2017,07,30,02,47,15.70
2017,07,30,02,48,15.70
2017,07,30,02,49,15.70
2017,07,30,02,50,15.70
2017,07,30,02,51,15.70
2017,07,30,02,52,15.70
2017,07,30,02,53,15.70
2017,07,30,02,54,15.80
2017,07,30,02,55,15.80
2017,07,30,02,56,15.80
2017,07,30,02,57,15.80
2017,07,30,02,58,15.80
2017,07,30,02,59,15.80
2017,07,30,03,00,15.80
2017,07,30,03,01,15.80
2017,07,30,03,02,15.80
2017,07,30,03,03,15.80
2017,07,30,03,04,15.80
2017,07,30,03,05,15.80
2017,07,30,03,06,15.80
2017,07,30,03,07,15.80
2017,07,30,03,08,15.80
2017,07,30,03,09,15.80
2017,07,30,03,10,15.80
2017,07,30,03,11,15.80
2017,07,30,03,12,15.80
2017,07,30,03,13,15.80
2017,07,30,03,14,15.80
2017,07,30,03,15,15.80
2017,07,30,03,16,15.80
2017,07,30,03,17,15.90
2017,07,30,03,18,15.90
2017,07,30,03,19,15.90
2017,07,30,03,20,15.90
2017,07,30,03,21,15.90
2017,07,30,03,22,16.00
2017,07,30,03,23,16.00
2017,07,30,03,24,16.00
2017,07,30,03,25,16.00
2017,07,30,03,26,16.00
2017,07,30,03,27,16.10
2017,07,30,03,28,16.10
2017,07,30,03,29,16.10
2017,07,30,03,30,16.10
2017,07,30,03,31,16.10
2017,07,30,03,32,16.10
2017,07,30,03,33,16.10
2017,07,30,03,34,16.10
2017,07,30,03,35,16.10
2017,07,30,03,36,16.10
2017,07,30,03,37,16.10
2017,07,30,03,38,16.10
2017,07,30,03,39,16.10
2017,07,30,03,40,16.10
2017,07,30,03,41,16.10
2017,07,30,03,42,16.10
2017,07,30,03,43,16.20
2017,07,30,03,44,16.20
2017,07,30,03,45,16.20
2017,07,30,03,46,16.20
2017,07,30,03,47,16.20
2017,07,30,03,48,16.20
2017,07,30,03,49,16.10
2017,07,30,03,50,16.10
2017,07,30,03,51,16.20
2017,07,30,03,52,16.20
2017,07,30,03,53,16.20
2017,07,30,03,54,16.20
2017,07,30,03,55,16.20
2017,07,30,03,56,16.20
2017,07,30,03,57,16.20
2017,07,30,03,58,16.20
2017,07,30,03,59,16.20
2017,07,30,04,00,16.20
2017,07,30,04,01,16.20
2017,07,30,04,02,16.20
2017,07,30,04,03,16.20
2017,07,30,04,04,16.20
2017,07,30,04,05,16.10
2017,07,30,04,06,16.10
2017,07,30,04,07,16.10
2017,07,30,04,08,16.10
2017,07,30,04,09,16.10
2017,07,30,04,10,16.10
2017,07,30,04,11,16.10
2017,07,30,04,12,16.10
2017,07,30,04,13,16.10
2017,07,30,04,14,16.10
2017,07,30,04,15,16.10
2017,07,30,04,16,16.10
2017,07,30,04,17,16.10
2017,07,30,04,18,16.10
2017,07,30,04,19,16.10
2017,07,30,04,20,16.10
2017,07,30,04,21,16.10
2017,07,30,04,22,16.10
2017,07,30,04,23,16.10
2017,07,30,04,24,16.10
2017,07,30,04,25,16.10
2017,07,30,04,26,16.10
2017,07,30,04,27,16.10
2017,07,30,04,28,16.10
2017,07,30,04,29,16.00
2017,07,30,04,30,16.00
2017,07,30,04,31,16.00
2017,07,30,04,32,16.00
2017,07,30,04,33,16.00
2017,07,30,04,34,16.00
2017,07,30,04,35,16.00
2017,07,30,04,36,16.10
2017,07,30,04,37,16.10
2017,07,30,04,38,16.10
2017,07,30,04,39,16.10
2017,07,30,04,40,16.10
2017,07,30,04,41,16.10
2017,07,30,04,42,16.10
2017,07,30,04,43,16.10
2017,07,30,04,44,16.10
2017,07,30,04,45,16.20
2017,07,30,04,46,16.20
2017,07,30,04,47,16.20
2017,07,30,04,48,16.20
2017,07,30,04,49,16.20
2017,07,30,04,50,16.20
2017,07,30,04,51,16.10
2017,07,30,04,52,16.10
2017,07,30,04,53,16.10
2017,07,30,04,54,16.10
2017,07,30,04,55,16.10
2017,07,30,04,56,16.10
2017,07,30,04,57,16.20
2017,07,30,04,58,16.20
2017,07,30,04,59,16.20
2017,07,30,05,00,16.20
2017,07,30,05,01,16.20
2017,07,30,05,02,16.20
2017,07,30,05,03,16.10
2017,07,30,05,04,16.10
2017,07,30,05,05,16.10
2017,07,30,05,06,16.10
2017,07,30,05,07,16.10
2017,07,30,05,08,16.10
2017,07,30,05,09,16.10
2017,07,30,05,10,16.10
2017,07,30,05,11,16.10
2017,07,30,05,12,16.10
2017,07,30,05,13,16.10
2017,07,30,05,14,16.10
2017,07,30,05,15,16.10
2017,07,30,05,16,16.10
2017,07,30,05,17,16.10
2017,07,30,05,18,16.10
2017,07,30,05,19,16.10
2017,07,30,05,20,16.00
2017,07,30,05,21,15.90
2017,07,30,05,22,15.80
2017,07,30,05,23,15.80
2017,07,30,05,24,15.80
2017,07,30,05,25,15.70
2017,07,30,05,26,15.70
2017,07,30,05,27,15.70
2017,07,30,05,28,15.70
2017,07,30,05,29,15.70
2017,07,30,05,30,15.70
2017,07,30,05,31,15.70
2017,07,30,05,32,15.60
2017,07,30,05,33,15.60
2017,07,30,05,34,15.60
2017,07,30,05,35,15.60
2017,07,30,05,36,15.60
2017,07,30,05,37,15.60
2017,07,30,05,38,15.60
2017,07,30,05,39,15.60
2017,07,30,05,40,15.60
2017,07,30,05,41,15.60
2017,07,30,05,42,15.60
2017,07,30,05,43,15.60
2017,07,30,05,44,15.60
2017,07,30,05,45,15.60
2017,07,30,05,46,15.60
2017,07,30,05,47,15.60
2017,07,30,05,48,15.60
2017,07,30,05,49,15.70
2017,07,30,05,50,15.70
2017,07,30,05,51,15.70
2017,07,30,05,52,15.70
2017,07,30,05,53,15.70
2017,07,30,05,54,15.70
2017,07,30,05,55,15.70
2017,07,30,05,56,15.70
2017,07,30,05,57,15.70
2017,07,30,05,58,15.80
2017,07,30,05,59,15.80
2017,07,30,06,00,15.80
2017,07,30,06,01,15.80
2017,07,30,06,02,15.80
2017,07,30,06,03,15.80
2017,07,30,06,04,15.80
2017,07,30,06,05,15.80
2017,07,30,06,06,15.80
2017,07,30,06,07,15.80
2017,07,30,06,08,15.80
2017,07,30,06,09,15.80
2017,07,30,06,10,15.80
2017,07,30,06,11,15.80
2017,07,30,06,12,15.80
2017,07,30,06,13,15.80
2017,07,30,06,14,15.80
2017,07,30,06,15,15.90
2017,07,30,06,16,15.90
2017,07,30,06,17,15.90
2017,07,30,06,18,16.00
2017,07,30,06,19,16.00
2017,07,30,06,20,16.00
2017,07,30,06,21,16.10
2017,07,30,06,22,16.10
2017,07,30,06,23,16.10
2017,07,30,06,24,16.10
2017,07,30,06,25,16.10
2017,07,30,06,26,16.20
2017,07,30,06,27,16.20
2017,07,30,06,28,16.10
2017,07,30,06,29,16.10
2017,07,30,06,30,16.10
2017,07,30,06,31,16.10
2017,07,30,06,32,16.10
2017,07,30,06,33,16.10
2017,07,30,06,34,16.10
2017,07,30,06,35,16.10
2017,07,30,06,36,16.10
2017,07,30,06,37,16.00
2017,07,30,06,38,16.00
2017,07,30,06,39,15.90
2017,07,30,06,40,15.90
2017,07,30,06,41,15.90
2017,07,30,06,42,15.90
2017,07,30,06,43,15.90
2017,07,30,06,44,15.90
2017,07,30,06,45,15.90
2017,07,30,06,46,15.90
2017,07,30,06,47,15.90
2017,07,30,06,48,16.00
2017,07,30,06,49,16.00
2017,07,30,06,50,16.00
2017,07,30,06,51,16.00
2017,07,30,06,52,15.90
2017,07,30,06,53,15.90
2017,07,30,06,54,15.80
2017,07,30,06,55,15.80
2017,07,30,06,56,15.60
2017,07,30,06,57,15.40
2017,07,30,06,58,15.30
2017,07,30,06,59,15.20
2017,07,30,07,00,15.10
2017,07,30,07,01,15.00
2017,07,30,07,02,14.90
2017,07,30,07,03,14.80
2017,07,30,07,04,14.80
2017,07,30,07,05,14.80
2017,07,30,07,06,14.80
2017,07,30,07,07,14.80
2017,07,30,07,08,14.80
2017,07,30,07,09,14.90
2017,07,30,07,10,14.90
2017,07,30,07,11,15.00
2017,07,30,07,12,15.00
2017,07,30,07,13,15.00
2017,07,30,07,14,14.80
2017,07,30,07,15,14.70
2017,07,30,07,16,14.70
2017,07,30,07,17,14.60
2017,07,30,07,18,14.40
2017,07,30,07,19,14.30
2017,07,30,07,20,14.20
2017,07,30,07,21,14.10
2017,07,30,07,22,14.00
2017,07,30,07,23,13.90
2017,07,30,07,24,13.80
2017,07,30,07,25,13.80
2017,07,30,07,26,13.70
2017,07,30,07,27,13.70
2017,07,30,07,28,13.70
2017,07,30,07,29,13.70
2017,07,30,07,30,13.70
2017,07,30,07,31,13.60
2017,07,30,07,32,13.50
2017,07,30,07,33,13.50
2017,07,30,07,34,13.40
2017,07,30,07,35,13.40
2017,07,30,07,36,13.40
2017,07,30,07,37,13.40
2017,07,30,07,38,13.40
2017,07,30,07,39,13.40
2017,07,30,07,40,13.40
2017,07,30,07,41,13.40
2017,07,30,07,42,13.40
2017,07,30,07,43,13.30
2017,07,30,07,44,13.30
2017,07,30,07,45,13.30
2017,07,30,07,46,13.30
2017,07,30,07,47,13.30
2017,07,30,07,48,13.30
2017,07,30,07,49,13.30
2017,07,30,07,50,13.40
2017,07,30,07,51,13.50
2017,07,30,07,52,13.60
2017,07,30,07,53,13.70
2017,07,30,07,54,13.70
2017,07,30,07,55,13.80
2017,07,30,07,56,13.70
2017,07,30,07,57,13.60
2017,07,30,07,58,13.50
2017,07,30,07,59,13.40
2017,07,30,08,00,13.40
2017,07,30,08,01,13.40
2017,07,30,08,02,13.50
2017,07,30,08,03,13.50
2017,07,30,08,04,13.60
2017,07,30,08,05,13.70
2017,07,30,08,06,13.80
2017,07,30,08,07,13.70
2017,07,30,08,08,13.60
2017,07,30,08,09,13.40
2017,07,30,08,10,13.40
2017,07,30,08,11,13.50
2017,07,30,08,12,13.60
2017,07,30,08,13,13.60
2017,07,30,08,14,13.70
2017,07,30,08,15,13.80
2017,07,30,08,16,13.80
2017,07,30,08,17,13.90
2017,07,30,08,18,14.00
2017,07,30,08,19,14.10
2017,07,30,08,20,14.30
2017,07,30,08,21,14.40
2017,07,30,08,22,14.50
2017,07,30,08,23,14.70
2017,07,30,08,24,14.80
2017,07,30,08,25,15.00
2017,07,30,08,26,15.10
2017,07,30,08,27,15.20
2017,07,30,08,28,15.30
2017,07,30,08,29,15.40
2017,07,30,08,30,15.50
2017,07,30,08,31,15.50
2017,07,30,08,32,15.60
2017,07,30,08,33,15.60
2017,07,30,08,34,15.50
2017,07,30,08,35,15.60
2017,07,30,08,36,15.60
2017,07,30,08,37,15.60
2017,07,30,08,38,15.70
2017,07,30,08,39,15.80
2017,07,30,08,40,16.00
2017,07,30,08,41,16.20
2017,07,30,08,42,16.30
2017,07,30,08,43,16.50
2017,07,30,08,44,16.70
2017,07,30,08,45,16.80
2017,07,30,08,46,17.00
2017,07,30,08,47,17.10
2017,07,30,08,48,17.30
2017,07,30,08,49,17.40
2017,07,30,08,50,17.50
2017,07,30,08,51,17.60
2017,07,30,08,52,17.70
2017,07,30,08,53,17.70
2017,07,30,08,54,17.70
2017,07,30,08,55,17.80
2017,07,30,08,56,17.80
2017,07,30,08,57,17.90
2017,07,30,08,58,18.00
2017,07,30,08,59,18.00
2017,07,30,09,00,18.00
2017,07,30,09,01,17.90
2017,07,30,09,02,17.80
2017,07,30,09,03,17.70
2017,07,30,09,04,17.70
2017,07,30,09,05,17.60
2017,07,30,09,06,17.40
2017,07,30,09,07,17.30
2017,07,30,09,08,17.20
2017,07,30,09,09,17.10
2017,07,30,09,10,16.90
2017,07,30,09,11,16.70
2017,07,30,09,12,16.50
2017,07,30,09,13,16.30
2017,07,30,09,14,16.30
2017,07,30,09,15,16.30
2017,07,30,09,16,16.50
2017,07,30,09,17,16.60
2017,07,30,09,18,16.70
2017,07,30,09,19,16.70
2017,07,30,09,20,16.70
2017,07,30,09,21,16.70
2017,07,30,09,22,16.70
2017,07,30,09,23,16.70
2017,07,30,09,24,16.70
2017,07,30,09,25,16.70
2017,07,30,09,26,16.80
2017,07,30,09,27,16.90
2017,07,30,09,28,16.90
2017,07,30,09,29,16.90
2017,07,30,09,30,16.90
2017,07,30,09,31,16.90
2017,07,30,09,32,17.00
2017,07,30,09,33,17.00
2017,07,30,09,34,17.10
2017,07,30,09,35,17.20
2017,07,30,09,36,17.20
2017,07,30,09,37,17.20
2017,07,30,09,38,17.20
2017,07,30,09,39,17.20
2017,07,30,09,40,17.20
2017,07,30,09,41,17.20
2017,07,30,09,42,17.20
2017,07,30,09,43,17.30
2017,07,30,09,44,17.30
2017,07,30,09,45,17.30
2017,07,30,09,46,17.20
2017,07,30,09,47,17.10
2017,07,30,09,48,17.10
2017,07,30,09,49,17.20
2017,07,30,09,50,17.20
2017,07,30,09,51,17.20
2017,07,30,09,52,17.20
2017,07,30,09,53,17.20
2017,07,30,09,54,17.30
2017,07,30,09,55,17.30
2017,07,30,09,56,17.40
2017,07,30,09,57,17.40
2017,07,30,09,58,17.40
2017,07,30,09,59,17.40
2017,07,30,10,00,17.40
2017,07,30,10,01,17.40
2017,07,30,10,02,17.50
2017,07,30,10,03,17.50
2017,07,30,10,04,17.60
2017,07,30,10,05,17.70
2017,07,30,10,06,17.70
2017,07,30,10,07,17.80
2017,07,30,10,08,17.80
2017,07,30,10,09,17.80
2017,07,30,10,10,17.80
2017,07,30,10,11,17.70
2017,07,30,10,12,17.70
2017,07,30,10,13,17.80
2017,07,30,10,14,17.90
2017,07,30,10,15,17.90
2017,07,30,10,16,17.90
2017,07,30,10,17,17.90
2017,07,30,10,18,17.90
2017,07,30,10,19,17.80
2017,07,30,10,20,17.80
2017,07,30,10,21,17.80
2017,07,30,10,22,17.70
2017,07,30,10,23,17.60
2017,07,30,10,24,17.50
2017,07,30,10,25,17.40
2017,07,30,10,26,17.30
2017,07,30,10,27,17.30
2017,07,30,10,28,17.20
2017,07,30,10,29,17.20
2017,07,30,10,30,17.30
2017,07,30,10,31,17.30
2017,07,30,10,32,17.30
2017,07,30,10,33,17.20
2017,07,30,10,34,17.20
2017,07,30,10,35,17.10
2017,07,30,10,36,17.20
2017,07,30,10,37,17.20
2017,07,30,10,38,17.20
2017,07,30,10,39,17.20
2017,07,30,10,40,17.10
2017,07,30,10,41,17.10
2017,07,30,10,42,17.10
2017,07,30,10,43,17.10
2017,07,30,10,44,17.10
2017,07,30,10,45,17.10
2017,07,30,10,46,17.10
2017,07,30,10,47,17.10
2017,07,30,10,48,17.20
2017,07,30,10,49,17.30
2017,07,30,10,50,17.40
2017,07,30,10,51,17.40
2017,07,30,10,52,17.40
2017,07,30,10,53,17.40
2017,07,30,10,54,17.50
2017,07,30,10,55,17.60
2017,07,30,10,56,17.70
2017,07,30,10,57,17.70
2017,07,30,10,58,17.80
2017,07,30,10,59,17.80
2017,07,30,11,00,17.80
2017,07,30,11,01,17.90
2017,07,30,11,02,18.00
2017,07,30,11,03,18.10
2017,07,30,11,04,18.10
2017,07,30,11,05,18.00
2017,07,30,11,06,18.10
2017,07,30,11,07,18.10
2017,07,30,11,08,18.10
2017,07,30,11,09,18.00
2017,07,30,11,10,17.90
2017,07,30,11,11,17.80
2017,07,30,11,12,17.90
2017,07,30,11,13,18.00
2017,07,30,11,14,18.10
2017,07,30,11,15,18.10
2017,07,30,11,16,18.10
2017,07,30,11,17,18.20
2017,07,30,11,18,18.20
2017,07,30,11,19,18.20
2017,07,30,11,20,18.20
2017,07,30,11,21,18.10
2017,07,30,11,22,18.00
2017,07,30,11,23,18.00
2017,07,30,11,24,18.20
2017,07,30,11,25,18.30
2017,07,30,11,26,18.30
2017,07,30,11,27,18.30
2017,07,30,11,28,18.30
2017,07,30,11,29,18.20
2017,07,30,11,30,18.10
2017,07,30,11,31,18.10
2017,07,30,11,32,18.20
2017,07,30,11,33,18.20
2017,07,30,11,34,18.20
2017,07,30,11,35,18.20
2017,07,30,11,36,18.20
2017,07,30,11,37,18.20
2017,07,30,11,38,18.00
2017,07,30,11,39,17.80
2017,07,30,11,40,17.80
2017,07,30,11,41,17.80
2017,07,30,11,42,17.80
2017,07,30,11,43,17.90
2017,07,30,11,44,17.90
2017,07,30,11,45,17.90
2017,07,30,11,46,17.90
2017,07,30,11,47,18.00
2017,07,30,11,48,18.20
2017,07,30,11,49,18.20
2017,07,30,11,50,18.00
2017,07,30,11,51,17.80
2017,07,30,11,52,17.70
2017,07,30,11,53,17.60
2017,07,30,11,54,17.50
2017,07,30,11,55,17.40
2017,07,30,11,56,17.40
2017,07,30,11,57,17.50
2017,07,30,11,58,17.60
2017,07,30,11,59,17.70
2017,07,30,12,00,17.80
2017,07,30,12,01,17.90
2017,07,30,12,02,17.90
2017,07,30,12,03,17.90
2017,07,30,12,04,17.90
2017,07,30,12,05,17.90
2017,07,30,12,06,17.90
2017,07,30,12,07,17.90
2017,07,30,12,08,18.00
2017,07,30,12,09,18.10
2017,07,30,12,10,18.20
2017,07,30,12,11,18.10
2017,07,30,12,12,18.10
2017,07,30,12,13,18.20
2017,07,30,12,14,18.20
2017,07,30,12,15,18.20
2017,07,30,12,16,18.30
2017,07,30,12,17,18.30
2017,07,30,12,18,18.40
2017,07,30,12,19,18.30
2017,07,30,12,20,18.30
2017,07,30,12,21,18.40
2017,07,30,12,22,18.40
2017,07,30,12,23,18.40
2017,07,30,12,24,18.50
2017,07,30,12,25,18.60
2017,07,30,12,26,18.60
2017,07,30,12,27,18.70
2017,07,30,12,28,18.80
2017,07,30,12,29,18.80
2017,07,30,12,30,19.00
2017,07,30,12,31,19.00
2017,07,30,12,32,19.00
2017,07,30,12,33,19.10
2017,07,30,12,34,19.10
2017,07,30,12,35,19.20
2017,07,30,12,36,19.30
2017,07,30,12,37,19.30
2017,07,30,12,38,19.30
2017,07,30,12,39,19.30
2017,07,30,12,40,19.20
2017,07,30,12,41,19.20
2017,07,30,12,42,19.20
2017,07,30,12,43,19.30
2017,07,30,12,44,19.30
2017,07,30,12,45,19.40
2017,07,30,12,46,19.40
2017,07,30,12,47,19.40
2017,07,30,12,48,19.40
2017,07,30,12,49,19.40
2017,07,30,12,50,19.40
2017,07,30,12,51,19.40
2017,07,30,12,52,19.50
2017,07,30,12,53,19.60
2017,07,30,12,54,19.80
2017,07,30,12,55,19.90
2017,07,30,12,56,20.00
2017,07,30,12,57,20.10
2017,07,30,12,58,20.10
2017,07,30,12,59,20.00
2017,07,30,13,00,19.90
2017,07,30,13,01,19.90
2017,07,30,13,02,19.90
2017,07,30,13,03,19.90
2017,07,30,13,04,20.10
2017,07,30,13,05,20.20
2017,07,30,13,06,20.30
2017,07,30,13,07,20.40
2017,07,30,13,08,20.50
2017,07,30,13,09,20.60
2017,07,30,13,10,20.60
2017,07,30,13,11,20.60
2017,07,30,13,12,20.60
2017,07,30,13,13,20.70
2017,07,30,13,14,20.80
2017,07,30,13,15,20.80
2017,07,30,13,16,20.60
2017,07,30,13,17,20.40
2017,07,30,13,18,20.30
2017,07,30,13,19,20.30
2017,07,30,13,20,20.40
2017,07,30,13,21,20.70
2017,07,30,13,22,20.80
2017,07,30,13,23,21.00
2017,07,30,13,24,21.00
2017,07,30,13,25,21.10
2017,07,30,13,26,21.10
2017,07,30,13,27,21.20
2017,07,30,13,28,21.30
2017,07,30,13,29,21.40
2017,07,30,13,30,21.30
2017,07,30,13,31,21.30
2017,07,30,13,32,21.30
2017,07,30,13,33,21.40
2017,07,30,13,34,21.50
2017,07,30,13,35,21.50
2017,07,30,13,36,21.50
2017,07,30,13,37,21.60
2017,07,30,13,38,21.60
2017,07,30,13,39,21.60
2017,07,30,13,40,21.70
2017,07,30,13,41,21.70
2017,07,30,13,42,21.80
2017,07,30,13,43,21.90
2017,07,30,13,44,21.90
2017,07,30,13,45,21.70
2017,07,30,13,46,21.60
2017,07,30,13,47,21.60
2017,07,30,13,48,21.60
2017,07,30,13,49,21.60
2017,07,30,13,50,21.70
2017,07,30,13,51,21.80
2017,07,30,13,52,21.80
2017,07,30,13,53,21.90
2017,07,30,13,54,21.90
2017,07,30,13,55,21.90
2017,07,30,13,56,21.90
2017,07,30,13,57,21.90
2017,07,30,13,58,21.80
2017,07,30,13,59,21.80
2017,07,30,14,00,21.80
2017,07,30,14,01,21.70
2017,07,30,14,02,21.70
2017,07,30,14,03,21.70
2017,07,30,14,04,21.70
2017,07,30,14,05,21.80
2017,07,30,14,06,21.90
2017,07,30,14,07,22.00
2017,07,30,14,08,22.00
2017,07,30,14,09,21.90
2017,07,30,14,10,21.90
2017,07,30,14,11,21.90
2017,07,30,14,12,22.00
2017,07,30,14,13,22.00
2017,07,30,14,14,22.10
2017,07,30,14,15,22.20
2017,07,30,14,16,22.30
2017,07,30,14,17,22.40
2017,07,30,14,18,22.40
2017,07,30,14,19,22.40
2017,07,30,14,20,22.60
2017,07,30,14,21,22.70
2017,07,30,14,22,22.70
2017,07,30,14,23,22.70
2017,07,30,14,24,22.70
2017,07,30,14,25,22.80
2017,07,30,14,26,22.90
2017,07,30,14,27,23.00
2017,07,30,14,28,23.10
2017,07,30,14,29,23.20
2017,07,30,14,30,23.10
2017,07,30,14,31,22.90
2017,07,30,14,32,22.70
2017,07,30,14,33,22.70
2017,07,30,14,34,22.80
2017,07,30,14,35,22.90
2017,07,30,14,36,23.00
2017,07,30,14,37,23.10
2017,07,30,14,38,23.00
2017,07,30,14,39,23.00
2017,07,30,14,40,23.00
2017,07,30,14,41,22.90
2017,07,30,14,42,23.00
2017,07,30,14,43,23.10
2017,07,30,14,44,23.10
2017,07,30,14,45,23.00
2017,07,30,14,46,23.00
2017,07,30,14,47,22.90
2017,07,30,14,48,22.80
2017,07,30,14,49,22.80
2017,07,30,14,50,22.70
2017,07,30,14,51,22.80
2017,07,30,14,52,22.80
2017,07,30,14,53,22.80
2017,07,30,14,54,22.80
2017,07,30,14,55,22.70
2017,07,30,14,56,22.70
2017,07,30,14,57,22.70
2017,07,30,14,58,22.80
2017,07,30,14,59,22.90
2017,07,30,15,00,22.90
2017,07,30,15,01,22.90
2017,07,30,15,02,22.80
2017,07,30,15,03,22.70
2017,07,30,15,04,22.70
2017,07,30,15,05,22.80
2017,07,30,15,06,22.90
2017,07,30,15,07,23.00
2017,07,30,15,08,22.90
2017,07,30,15,09,23.00
2017,07,30,15,10,22.90
2017,07,30,15,11,22.80
2017,07,30,15,12,22.80
2017,07,30,15,13,22.90
2017,07,30,15,14,22.90
2017,07,30,15,15,23.00
2017,07,30,15,16,23.10
2017,07,30,15,17,23.20
2017,07,30,15,18,23.20
2017,07,30,15,19,23.20
2017,07,30,15,20,23.10
2017,07,30,15,21,23.00
2017,07,30,15,22,22.90
2017,07,30,15,23,22.90
2017,07,30,15,24,22.90
2017,07,30,15,25,22.80
2017,07,30,15,26,22.80
2017,07,30,15,27,22.70
2017,07,30,15,28,22.80
2017,07,30,15,29,22.90
2017,07,30,15,30,22.90
2017,07,30,15,31,23.00
2017,07,30,15,32,23.10
2017,07,30,15,33,23.10
2017,07,30,15,34,23.00
2017,07,30,15,35,23.00
2017,07,30,15,36,22.90
2017,07,30,15,37,22.90
2017,07,30,15,38,22.80
2017,07,30,15,39,22.60
2017,07,30,15,40,22.60
2017,07,30,15,41,22.70
2017,07,30,15,42,22.70
2017,07,30,15,43,22.50
2017,07,30,15,44,22.40
2017,07,30,15,45,22.40
2017,07,30,15,46,22.40
2017,07,30,15,47,22.30
2017,07,30,15,48,22.30
2017,07,30,15,49,22.20
2017,07,30,15,50,22.20
2017,07,30,15,51,22.20
2017,07,30,15,52,22.20
2017,07,30,15,53,22.20
2017,07,30,15,54,22.30
2017,07,30,15,55,22.30
2017,07,30,15,56,22.50
2017,07,30,15,57,22.60
2017,07,30,15,58,22.70
2017,07,30,15,59,22.80
2017,07,30,16,00,22.80
2017,07,30,16,01,22.70
2017,07,30,16,02,22.70
2017,07,30,16,03,22.60
2017,07,30,16,04,22.50
2017,07,30,16,05,22.40
2017,07,30,16,06,22.30
2017,07,30,16,07,22.30
2017,07,30,16,08,22.20
2017,07,30,16,09,22.20
2017,07,30,16,10,22.20
2017,07,30,16,11,22.20
2017,07,30,16,12,22.20
2017,07,30,16,13,22.20
2017,07,30,16,14,22.20
2017,07,30,16,15,22.20
2017,07,30,16,16,22.20
2017,07,30,16,17,22.20
2017,07,30,16,18,22.10
2017,07,30,16,19,22.20
2017,07,30,16,20,22.20
2017,07,30,16,21,22.20
2017,07,30,16,22,22.10
2017,07,30,16,23,22.10
2017,07,30,16,24,22.00
2017,07,30,16,25,21.90
2017,07,30,16,26,21.80
2017,07,30,16,27,21.70
2017,07,30,16,28,21.70
2017,07,30,16,29,21.60
2017,07,30,16,30,21.50
2017,07,30,16,31,21.50
2017,07,30,16,32,21.50
2017,07,30,16,33,21.40
2017,07,30,16,34,21.40
2017,07,30,16,35,21.40
2017,07,30,16,36,21.60
2017,07,30,16,37,21.80
2017,07,30,16,38,21.90
2017,07,30,16,39,21.80
2017,07,30,16,40,21.70
2017,07,30,16,41,21.50
2017,07,30,16,42,21.40
2017,07,30,16,43,21.40
2017,07,30,16,44,21.30
2017,07,30,16,45,21.30
2017,07,30,16,46,21.30
2017,07,30,16,47,21.20
2017,07,30,16,48,21.10
2017,07,30,16,49,21.10
2017,07,30,16,50,21.10
2017,07,30,16,51,21.00
2017,07,30,16,52,21.00
2017,07,30,16,53,20.80
2017,07,30,16,54,20.70
2017,07,30,16,55,20.80
2017,07,30,16,56,20.80
2017,07,30,16,57,20.70
2017,07,30,16,58,20.60
2017,07,30,16,59,20.60
2017,07,30,17,00,20.60
2017,07,30,17,01,20.60
2017,07,30,17,02,20.60
2017,07,30,17,03,20.60
2017,07,30,17,04,20.60
2017,07,30,17,05,20.60
2017,07,30,17,06,20.60
2017,07,30,17,07,20.60
2017,07,30,17,08,20.60
2017,07,30,17,09,20.60
2017,07,30,17,10,20.70
2017,07,30,17,11,20.80
2017,07,30,17,12,20.90
2017,07,30,17,13,21.00
2017,07,30,17,14,21.00
2017,07,30,17,15,20.90
2017,07,30,17,16,20.90
2017,07,30,17,17,20.80
2017,07,30,17,18,20.70
2017,07,30,17,19,20.60